Location: Tierra del Sol
(32.6128°N, 116.3319°W)
Time: 18:50:08
(UTC-08:00)

Envisat - Pass Details

Date: 07 October 2017
Orbit: 764 x 766 km, 98.2° (Epoch: 11 December)

Event Time Altitude Azimuth Distance (km) Brightness Sun altitude
Exits shadow 21:38:46 15° 309° (NW) 1,957 5.6 -41.5°
Drops below altitude 10° 21:39:58 10° 319° (NW) 2,306 6.0 -41.8°
Sets 21:42:40 0° 332° (NNW) 3,237 6.8 -42.3°
